• In Portugal
  • List of Countries
  • For 7 days
  • Water Temperature
  • Satellite Maps
  • Weather Map
  • Weather Widgets
  • user-avatar
    Login

    Hourly Weather Saurimo

    Today, 19 October, Friday

    Time Temperature Precipitation Wind Pressure Humidity
    00:00 +20°C° 0 mm 0 mps 669 mmHg 84%
    01:00 +19°C° 0 mm 0 mps 669 mmHg 85%
    02:00 +19°C° 0 mm 0 mps 669 mmHg 87%
    03:00 +19°C° 0 mm 0 mps 669 mmHg 88%
    04:00 +19°C° 0 mm 0 mps 668 mmHg 89%
    05:00 +22°C° 0.4 mm 1 mps 669 mmHg 86%
    06:00 +22°C° 0.4 mm 1 mps 670 mmHg 83%
    07:00 +23°C° 0.4 mm 2 mps 671 mmHg 81%
    08:00 +26°C° 0 mm 2 mps 671 mmHg 68%
    09:00 +29°C° 0 mm 2 mps 672 mmHg 56%
    10:00 +32°C° 0 mm 2 mps 672 mmHg 44%
    11:00 +34°C° 0 mm 2 mps 671 mmHg 41%
    12:00 +34°C° 0 mm 2 mps 671 mmHg 38%
    13:00 +35°C° 0 mm 2 mps 670 mmHg 35%
    14:00 +34°C° 0 mm 2 mps 670 mmHg 35%
    15:00 +34°C° 0 mm 2 mps 669 mmHg 36%
    16:00 +34°C° 0 mm 2 mps 669 mmHg 36%
    17:00 +31°C° 0 mm 2 mps 669 mmHg 42%
    18:00 +28°C° 0 mm 1 mps 668 mmHg 48%
    19:00 +26°C° 0 mm 1 mps 668 mmHg 54%
    20:00 +25°C° 0 mm 1 mps 669 mmHg 57%
    21:00 +25°C° 0 mm 1 mps 669 mmHg 60%
    22:00 +24°C° 0 mm 1 mps 669 mmHg 63%
    23:00 +23°C° 0.3 mm 1 mps 669 mmHg 69%

    Tomorrow, 20 October, Saturday

    Time Temperature Precipitation Wind Pressure Humidity
    00:00 +22°C° 0.3 mm 1 mps 669 mmHg 76%
    01:00 +21°C° 0.3 mm 1 mps 669 mmHg 82%
    02:00 +21°C° 0.7 mm 1 mps 669 mmHg 85%
    03:00 +21°C° 0.7 mm 1 mps 669 mmHg 89%
    04:00 +18°C° 0.7 mm 0 mps 668 mmHg 92%
    05:00 +20°C° 0 mm 0 mps 669 mmHg 88%
    06:00 +21°C° 0 mm 0 mps 670 mmHg 83%
    07:00 +22°C° 0 mm 0 mps 671 mmHg 78%
    08:00 +28°C° 0 mm 1 mps 672 mmHg 64%
    09:00 +32°C° 0 mm 1 mps 672 mmHg 50%
    10:00 +35°C° 0 mm 1 mps 673 mmHg 36%
    11:00 +36°C° 0 mm 1 mps 672 mmHg 33%
    12:00 +36°C° 0 mm 1 mps 671 mmHg 31%
    13:00 +36°C° 0 mm 1 mps 670 mmHg 28%
    14:00 +35°C° 0 mm 1 mps 670 mmHg 31%
    15:00 +34°C° 0 mm 1 mps 669 mmHg 34%
    16:00 +33°C° 0 mm 1 mps 668 mmHg 37%
    17:00 +31°C° 0.2 mm 1 mps 669 mmHg 44%
    18:00 +29°C° 0.2 mm 1 mps 669 mmHg 51%
    19:00 +27°C° 0.2 mm 2 mps 669 mmHg 58%
    20:00 +25°C° 0.3 mm 1 mps 669 mmHg 67%
    21:00 +24°C° 0.3 mm 1 mps 669 mmHg 76%
    22:00 +23°C° 0.3 mm 1 mps 669 mmHg 85%
    23:00 +22°C° 0.2 mm 1 mps 669 mmHg 86%

    Day after tomorrow, 21 October, Sunday

    Time Temperature Precipitation Wind Pressure Humidity
    00:00 +22°C° 0.2 mm 1 mps 669 mmHg 88%
    01:00 +22°C° 0.2 mm 1 mps 669 mmHg 89%
    02:00 +22°C° 0.3 mm 1 mps 669 mmHg 91%
    03:00 +21°C° 0.3 mm 1 mps 669 mmHg 92%
    04:00 +21°C° 0.3 mm 1 mps 668 mmHg 93%
    05:00 +22°C° 0 mm 1 mps 669 mmHg 90%
    06:00 +23°C° 0 mm 1 mps 670 mmHg 86%
    07:00 +24°C° 0 mm 1 mps 671 mmHg 83%
    08:00 +26°C° 0 mm 1 mps 671 mmHg 71%
    09:00 +29°C° 0 mm 1 mps 672 mmHg 59%
    10:00 +32°C° 0 mm 2 mps 672 mmHg 46%
    11:00 +32°C° 0 mm 2 mps 672 mmHg 44%
    12:00 +32°C° 0 mm 2 mps 671 mmHg 41%
    13:00 +32°C° 0 mm 2 mps 670 mmHg 39%
    14:00 +32°C° 0 mm 2 mps 670 mmHg 41%
    15:00 +31°C° 0 mm 2 mps 669 mmHg 44%
    16:00 +30°C° 0 mm 2 mps 669 mmHg 47%
    17:00 +28°C° 0.3 mm 2 mps 669 mmHg 58%
    18:00 +26°C° 0.3 mm 2 mps 669 mmHg 68%
    19:00 +24°C° 0.3 mm 2 mps 669 mmHg 78%
    20:00 +23°C° 0.1 mm 1 mps 669 mmHg 82%
    21:00 +23°C° 0.1 mm 1 mps 670 mmHg 85%
    22:00 +22°C° 0.1 mm 1 mps 670 mmHg 89%
    23:00 +22°C° 0 mm 1 mps 670 mmHg 89%

    22 October, Monday

    Time Temperature Precipitation Wind Pressure Humidity
    00:00 +22°C° 0 mm 1 mps 669 mmHg 89%
    01:00 +19°C° 0 mm 0 mps 669 mmHg 89%
    02:00 +21°C° 0.1 mm 1 mps 669 mmHg 90%
    03:00 +21°C° 0.1 mm 1 mps 669 mmHg 90%
    04:00 +21°C° 0.1 mm 1 mps 669 mmHg 90%
    05:00 +22°C° 0 mm 1 mps 670 mmHg 87%
    06:00 +22°C° 0 mm 1 mps 670 mmHg 84%
    07:00 +23°C° 0 mm 1 mps 671 mmHg 82%
    08:00 +25°C° 0 mm 1 mps 671 mmHg 69%
    09:00 +28°C° 0 mm 2 mps 671 mmHg 57%
    10:00 +30°C° 0 mm 2 mps 672 mmHg 44%
    11:00 +31°C° 0 mm 2 mps 671 mmHg 42%
    12:00 +32°C° 0 mm 2 mps 670 mmHg 39%
    13:00 +32°C° 0 mm 2 mps 669 mmHg 37%
    14:00 +32°C° 0 mm 2 mps 669 mmHg 40%
    15:00 +31°C° 0 mm 2 mps 669 mmHg 44%
    16:00 +30°C° 0 mm 2 mps 669 mmHg 47%
    17:00 +28°C° 1.2 mm 2 mps 669 mmHg 58%
    18:00 +26°C° 1.2 mm 2 mps 669 mmHg 69%
    19:00 +23°C° 1.2 mm 2 mps 669 mmHg 80%
    20:00 +23°C° 2.3 mm 2 mps 670 mmHg 84%
    21:00 +21°C° 2.3 mm 2 mps 670 mmHg 88%
    22:00 +21°C° 2.3 mm 2 mps 670 mmHg 92%
    23:00 +22°C° 0.1 mm 1 mps 670 mmHg 92%

    23 October, Tuesday

    Time Temperature Precipitation Wind Pressure Humidity
    00:00 +21°C° 0.1 mm 1 mps 670 mmHg 92%
    01:00 +19°C° 0.1 mm 0 mps 669 mmHg 92%
    02:00 +19°C° 0 mm 0 mps 669 mmHg 92%
    03:00 +21°C° 0 mm 1 mps 669 mmHg 92%
    04:00 +21°C° 0 mm 1 mps 669 mmHg 91%
    05:00 +21°C° 0 mm 1 mps 670 mmHg 90%
    06:00 +21°C° 0 mm 2 mps 671 mmHg 88%
    07:00 +21°C° 0 mm 2 mps 671 mmHg 86%
    08:00 +24°C° 0.4 mm 2 mps 672 mmHg 77%
    09:00 +26°C° 0.4 mm 3 mps 672 mmHg 68%
    10:00 +28°C° 0.4 mm 3 mps 672 mmHg 59%
    11:00 +29°C° 0 mm 3 mps 672 mmHg 55%
    12:00 +29°C° 0 mm 3 mps 671 mmHg 52%
    13:00 +30°C° 0 mm 3 mps 671 mmHg 48%
    14:00 +30°C° 0 mm 3 mps 670 mmHg 50%
    15:00 +29°C° 0 mm 2 mps 670 mmHg 52%
    16:00 +28°C° 0 mm 2 mps 670 mmHg 54%
    17:00 +27°C° 0 mm 2 mps 670 mmHg 59%
    18:00 +26°C° 0 mm 1 mps 670 mmHg 64%
    19:00 +24°C° 0 mm 1 mps 670 mmHg 69%
    20:00 +24°C° 0.1 mm 1 mps 670 mmHg 73%
    21:00 +23°C° 0.1 mm 1 mps 670 mmHg 77%
    22:00 +22°C° 0.1 mm 1 mps 671 mmHg 80%
    23:00 +22°C° 0 mm 1 mps 670 mmHg 82%

    24 October, Wednesday

    Time Temperature Precipitation Wind Pressure Humidity
    00:00 +22°C° 0 mm 1 mps 670 mmHg 83%
    01:00 +21°C° 0 mm 1 mps 669 mmHg 85%
    02:00 +21°C° 0.4 mm 1 mps 669 mmHg 87%
    03:00 +20°C° 0.4 mm 1 mps 669 mmHg 90%
    04:00 +19°C° 0.4 mm 2 mps 669 mmHg 92%
    05:00 +21°C° 0 mm 1 mps 670 mmHg 87%
    06:00 +22°C° 0 mm 1 mps 671 mmHg 82%
    07:00 +24°C° 0 mm 1 mps 671 mmHg 76%
    08:00 +27°C° 0 mm 2 mps 672 mmHg 62%
    09:00 +30°C° 0 mm 2 mps 672 mmHg 48%
    10:00 +35°C° 0 mm 2 mps 673 mmHg 34%
    11:00 +34°C° 0 mm 2 mps 672 mmHg 35%
    12:00 +32°C° 0 mm 2 mps 671 mmHg 37%
    13:00 +32°C° 0 mm 2 mps 670 mmHg 39%
    14:00 +31°C° 0 mm 2 mps 670 mmHg 41%
    15:00 +31°C° 0 mm 1 mps 669 mmHg 43%
    16:00 +30°C° 0 mm 1 mps 669 mmHg 45%
    17:00 +29°C° 0 mm 1 mps 669 mmHg 50%
    18:00 +27°C° 0 mm 1 mps 669 mmHg 55%
    19:00 +25°C° 0 mm 1 mps 670 mmHg 61%
    20:00 +24°C° 0.2 mm 1 mps 670 mmHg 67%
    21:00 +23°C° 0.2 mm 1 mps 670 mmHg 73%
    22:00 +22°C° 0.2 mm 1 mps 669 mmHg 79%
    23:00 +21°C° 0.3 mm 1 mps 669 mmHg 82%
    Show more